Location: Unspecified
(0.0000°N, 0.0000°E)
Time: 23:21:41
(UTC+00:00)

NOSS 2-3 (D) - Visible Passes

Search period start: 06 June 2023 00:00
Search period end: 16 June 2023 00:00
Orbit: 513 x 1692 km, 63.3° (Epoch: 04 June)

Date Brightness Start Highest point End Pass type
(mag) Time Alt. Az. Time Alt. Az. Time Alt. Az.
06 Jun 5.1 19:27:37 10° S 19:29:48 23° S 19:29:48 23° S visible
07 Jun 4.9 18:43:00 10° SSE 18:46:29 19° ESE 18:49:31 10° ENE visible
07 Jun 6.4 20:34:28 10° WSW 20:36:43 14° WNW 20:38:49 10° NW visible
08 Jun 4.9 19:47:01 10° SW 19:51:19 36° WNW 19:54:56 10° N visible
09 Jun 8.4 05:30:10 10° NE 05:35:00 16° ENE 05:40:14 10° ESE visible
09 Jun 3.4 19:00:57 10° SSW 19:05:48 79° ESE 19:09:43 10° NNE visible
11 Jun 6.1 19:21:07 10° WSW 19:24:40 22° WNW 19:27:47 10° NNW visible
12 Jun 8.0 05:02:11 10° NNE 05:08:27 22° ENE 05:15:27 10° ESE visible
12 Jun 4.1 18:34:30 10° SSW 18:39:13 61° WNW 18:43:04 10° NNE visible
13 Jun 8.5 04:20:57 10° ENE 04:22:48 11° ENE 04:24:41 10° E visible
14 Jun 6.6 05:19:16 10° N 05:27:29 50° ENE 05:37:11 10° SE visible
14 Jun 7.0 18:55:46 10° WSW 18:57:59 14° WNW 19:00:04 10° NW visible
15 Jun 7.4 04:34:41 10° NNE 04:41:52 30° ENE 04:50:05 10° SE visible
